Location: McMath-Hulbert Observatory
(42.6964°N, 83.3187°W)
Time: 20:27:23
(UTC-04:00)

Daily predictions for brighter satellites

Satellite Brightness Start Highest point End
(mag) Time Altitude Azimuth Time Altitude Azimuth Time Altitude Azimuth
FENGYUN 3A 3.9 20:32:19 10° SE 20:37:27 51° ENE 20:42:38 10° N
FengYun 1-2 T 4.3 20:34:46 10° SSE 20:40:24 79° ENE 20:46:01 10° NNW
Cosmos 2227 Rocket 2.3 20:37:00 10° NNW 20:42:40 65° ENE 20:48:15 10° SE
NOSS 2-1 (D) 4.1 20:39:05 10° SW 20:42:56 59° NW 20:47:22 10° NNE
Tiangong 1 1.0 20:40:43 10° W 20:43:50 86° N 20:46:55 10° E
NOSS 2-1 (C) 4.1 20:40:07 10° SW 20:43:57 60° NW 20:48:24 10° NNE
Cosmos 1821 Rocket 4.0 20:38:21 10° S 20:44:27 82° E 20:50:34 10° N
Helios 1A 3.6 20:40:35 10° S 20:44:43 62° WSW 20:48:54 10° NNW
Cosmos 1605 Rocket 4.2 20:41:31 10° SSE 20:47:36 51° E 20:53:38 10° NNE
EP 1 4.1 20:49:01 10° SSW 20:51:35 70° SE 20:54:13 10° NE
Lacrosse 5 2.8 20:47:25 10° NW 20:52:06 36° NNE 20:56:46 10° E
ERS-1 Rocket 4.0 20:48:56 10° ESE 20:53:07 27° ENE 20:57:19 10° N
Cosmos 1461 2.8 20:51:03 10° NW 20:55:08 82° WSW 20:59:04 10° SSE
DELTA 2 R/B (1) 3.9 20:50:59 10° W 20:56:27 58° S 21:01:40 11° ESE
Cosmos 1346 Rocket 2.8 20:52:39 10° N 20:56:37 89° ENE 21:00:37 10° S
Cosmos 2082 3.7 20:52:06 10° NNW 20:57:45 79° ENE 21:03:22 10° SSE
Cosmos 2297 Rocket 2.3 20:52:19 10° NNW 20:57:56 62° ENE 21:03:32 10° SE
Meteor 1-5 Rocket 4.2 20:53:36 10° S 20:58:57 90° ENE 21:04:27 10° N
Cosmos 1898 Rocket 4.1 20:58:11 10° N 21:03:11 39° ENE 21:07:49 11° SE
H-2A R/B 3.7 21:03:38 12° E 21:05:48 16° ENE 21:08:23 10° NNE
Cosmos 1626 Rocket 3.7 21:03:27 10° N 21:07:48 55° E 21:12:04 10° SSE
Cosmos 1455 Rocket 3.4 21:08:38 10° SSW 21:12:56 70° W 21:17:18 10° N
Cosmos 1515 4.1 21:09:40 10° N 21:13:21 43° ENE 21:16:39 12° SSE
Cosmos 2123 Rocket 4.2 21:10:15 10° N 21:16:27 78° W 21:22:36 10° S
Cosmos 1602 Rocket 3.5 21:12:40 10° N 21:17:08 71° E 21:21:32 10° SSE
RESURS DK-1 3.4 21:14:24 10° N 21:18:09 31° ENE 21:20:28 18° ESE
Cosmos 468 Rocket 4.3 21:14:46 10° S 21:19:34 42° ESE 21:24:22 10° NNE
Cosmos 2084 3.5 21:17:02 10° NNW 21:21:03 61° NE 21:23:56 19° SE
CZ-4 DEB 3.0 21:22:56 20° SE 21:24:49 47° ENE 21:27:53 10° N
SJ-11-01 4.4 21:20:47 12° SSE 21:24:58 55° ENE 21:29:33 10° N
Cosmos 220 Rocket 3.9 21:23:51 10° NNW 21:28:06 83° WSW 21:31:55 12° SSE
Cosmos 1743 3.7 21:26:39 21° SE 21:28:11 28° E 21:31:33 10° NNE
Cosmos 1459 Rocket 4.3 21:22:53 10° SSE 21:28:30 42° E 21:34:11 10° NNE
Cosmos 1814 Rocket 4.3 21:24:57 10° S 21:30:00 45° ESE 21:35:03 10° NNE
SL-24 R/B - RUBIN 2 4.3 21:26:40 10° SSW 21:32:31 78° ESE 21:39:03 10° NE
Cosmos 1066 Rocket 4.3 21:27:36 10° N 21:33:14 63° ENE 21:38:16 14° SSE
Cosmos 1697 Rocket 2.7 21:29:37 10° S 21:35:09 58° ESE 21:40:42 10° NNE
OAO 2 Rocket 4.1 21:31:42 10° WSW 21:36:15 34° S 21:38:28 24° SE
SL-16 R/B 4.1 21:46:17 12° ENE 21:46:17 12° ENE 21:47:01 10° ENE
Resurs 01 Rocket 4.5 21:41:23 10° SW 21:44:02 16° W 21:46:42 10° NW
Cosmos 2058 Rocket 4.4 21:45:01 23° E 21:45:01 23° E 21:48:24 10° NE
Cosmos 858 Rocket 4.5 21:41:05 10° NNW 21:46:25 83° ENE 21:49:56 22° SSE
ALOS 4.0 21:44:48 10° SSW 21:48:56 31° W 21:53:07 10° NNW
ASTEX 1 4.0 21:46:53 10° NNE 21:51:29 35° E 21:52:41 31° ESE
Cosmos 1606 Rocket 4.0 21:50:20 33° SE 21:51:32 40° E 21:55:41 10° NNE
Cosmos 1975 3.9 21:48:48 10° SSW 21:52:46 48° WNW 21:56:46 10° N
ARGOS 4.2 21:53:32 25° E 21:55:01 28° ENE 21:59:34 10° N
Cosmos 1842 4.4 21:52:00 10° NNE 21:55:11 26° ENE 21:55:11 26° ENE
USA 186 4.2 21:54:19 10° SW 21:56:39 19° W 21:58:52 10° NW
Cosmos 1980 Rocket 2.2 21:52:41 10° S 21:58:11 55° ESE 22:03:45 10° NNE
Lacrosse 5 rocket 2.9 21:57:08 10° WNW 22:00:06 23° SW 22:01:42 17° SSW
Cosmos 2298 Rocket 4.4 21:55:00 10° NNW 22:00:15 62° WSW 22:04:08 18° S
Cosmos 1802 Rocket 4.0 21:56:09 10° S 22:02:28 68° E 22:08:52 10° NNE
Envisat 2.9 22:00:26 24° SSE 22:03:31 90° SW 22:08:38 10° NNW
Iridium 4 Rocket 4.3 22:01:20 10° NNW 22:06:11 47° W 22:10:36 10° SSW
Cosmos 1937 Rocket 3.5 22:01:17 10° NNW 22:06:35 83° WSW 22:09:16 30° SSE
MetOp-B 4.2 22:07:39 37° SE 22:09:32 58° ENE 22:14:48 10° N
Cosmos 1726 Rocket 3.5 22:14:24 56° SE 22:14:57 62° E 22:19:19 10° NNE
Cosmos 1666 3.7 22:16:27 33° NE 22:16:27 33° NE 22:18:54 10° NNE
Cosmos 2016 Rocket 3.9 22:11:10 21° S 22:15:22 71° E 22:21:34 10° NNE
H-2A R/B 3.3 22:17:51 22° ENE 22:17:52 22° ENE 22:21:39 10° NNE
Cosmos 990 Rocket 3.9 22:13:48 10° NNW 22:19:05 87° WSW 22:20:53 42° SSE
Tiangong 1 2.2 22:17:14 10° W 22:19:22 38° WSW 22:19:22 38° WSW
CZ-4B R/B 4.5 22:18:08 10° NNE 22:21:05 28° ENE 22:21:05 28° ENE
Cosmos 2263 Rocket 3.4 22:20:05 10° N 22:24:38 25° NE 22:25:29 24° ENE
Cosmos 1939 Rocket 4.1 22:25:54 24° SSW 22:27:49 39° W 22:31:45 10° NNW
Cosmos 2173 Rocket 4.3 22:21:31 10° SSW 22:27:51 69° W 22:34:11 10° N
Cosmos 1825 Rocket 4.0 22:23:54 10° NNW 22:28:16 59° W 22:29:39 39° SSW
Cosmos 2322 Rocket 3.1 22:32:37 32° ENE 22:32:37 32° ENE 22:36:13 10° NE
ERS-1 Rocket 4.2 22:28:09 16° SSW 22:31:44 37° W 22:36:24 10° NNW
Cosmos 2098 Rocket 3.9 22:29:39 31° S 22:33:07 75° E 22:38:54 10° NNE
SL-08 RB Rocket 4.2 22:33:41 46° ENE 22:33:41 46° ENE 22:37:54 10° N
Meteor 1-21 4.4 22:27:42 10° NNW 22:33:27 73° W 22:35:57 36° S
Cosmos 836 Rocket 4.5 22:34:20 60° ESE 22:34:22 60° ESE 22:39:36 10° NNE
BREEZE-M DEB (TANK) 4.3 22:30:12 10° WNW 22:34:23 85° NNE 22:39:15 35° ESE
Lacrosse 5 2.3 22:30:20 10° NW 22:35:14 50° SW 22:36:04 45° SSW
Cosmos 1340 3.3 22:32:55 10° NNW 22:36:37 50° W 22:36:49 49° WSW
SPOT 1/Viking Rocket 3.5 22:36:08 62° ESE 22:36:46 69° ENE 22:41:58 10° N
YAOGAN 6 3.1 22:38:50 61° NW 22:38:50 61° NW 22:42:02 10° NNW
Cosmos 1953 Rocket 3.9 22:34:10 10° NNW 22:38:35 64° W 22:39:18 54° SW
SPOT 5 3.2 22:39:47 45° SSW 22:41:08 63° WSW 22:45:56 10° NNW
Cosmos 967 Rocket 4.5 22:35:03 10° NW 22:41:24 76° WSW 22:43:06 50° S
Cosmos 2297 Rocket 4.4 22:37:32 10° NW 22:41:25 19° W 22:45:18 10° SW
H-2A R/B 2.8 22:40:46 41° SW 22:41:27 45° W 22:45:26 10° NNW
Cosmos 2360 4.1 22:38:33 20° SSW 22:42:33 88° ESE 22:48:20 10° NNE
Meteor 2-9 Rocket 4.0 22:41:32 59° S 22:42:37 81° E 22:48:03 10° NNE
USA 245 4.4 22:41:37 51° SSE 22:43:21 86° ENE 22:49:44 10° NNW
Cosmos 1864 Rocket 4.3 22:41:44 49° S 22:43:27 78° E 22:49:35 10° N
Cosmos 1763 Rocket 3.7 22:41:43 19° SSW 22:45:23 68° WNW 22:50:28 10° NNE
Cosmos 2227 4.4 22:43:10 10° NNW 22:48:53 67° WSW 22:50:02 53° SSW
Tsikada Rocket 3.9 22:43:23 10° N 22:49:51 87° E 22:51:22 56° SSE
Cosmos 1125 Rocket 3.4 22:46:23 10° NNW 22:51:36 75° ENE 22:51:36 75° ENE
Cosmos 405 Rocket 4.5 22:48:18 10° N 22:50:05 24° NNE 22:50:05 24° NNE
Cosmos 2228 3.8 22:54:37 45° NNE 22:54:37 45° NNE 22:57:38 10° N
Landsat 7 4.4 22:55:37 47° NE 22:55:37 47° NE 22:59:29 10° N
RESURS DK-1 4.2 22:52:43 10° NW 22:56:03 24° WSW 22:56:25 23° WSW
Cosmos 1758 Rocket 4.3 22:53:08 10° NNW 22:57:18 45° W 22:57:28 45° W
USA 215 3.5 23:03:14 49° E 23:04:45 62° NNE 23:11:12 10° NW
Cosmos 841 Rocket 4.3 23:04:54 22° SW 23:08:01 49° WNW 23:13:05 10° N
Terra 2.7 23:11:26 41° NNE 23:11:26 41° NNE 23:14:48 10° N
Cosmos 1816 Rocket 4.4 23:05:03 10° N 23:11:27 82° W 23:12:13 70° SSW
BREEZE-M DEB (TANK) 4.3 23:10:27 10° WNW 23:11:28 23° W 23:11:28 23° W
Cosmos 1725 Rocket 4.4 23:12:55 39° SW 23:15:07 60° W 23:21:18 10° N
Meteor 2-17 Rocket 4.3 23:20:18 82° WSW 23:20:28 83° W 23:26:33 10° N
Cosmos 540 Rocket 4.4 23:25:35 42° NNE 23:25:35 42° NNE 23:28:57 10° NNE
SL-16 R/B 2.4 23:28:06 66° N 23:28:06 66° N 23:33:03 10° NNE
ARGOS 4.1 23:35:04 40° W 23:35:04 40° W 23:40:08 10° NNW
Cosmos 1844 Rocket 4.4 23:32:42 10° N 23:36:28 22° NE 23:36:28 22° NE
BREEZE-M DEB (TANK) 3.7 23:31:07 10° W 23:38:01 51° WNW 23:38:01 51° WNW
Cosmos 2233 Rocket 4.2 23:39:50 61° W 23:40:11 62° W 23:46:23 10° N
Cosmos 2360 Rocket 3.8 23:45:50 24° NE 23:45:50 24° NE 23:48:05 10° NNE
Cosmos 1980 Rocket 4.2 23:37:55 10° WSW 23:42:32 25° NW 23:47:12 10° N
